SL-16 R/B

Satellite information

Favourite Embed

Satellite Type and Status

ROCKET BODYIN ORBIT

Key statistics

Satellite SL-16 R/B at a glance.

Uptime

6522

Days in orbit

Revolutions

≈ 14.1

Per day

Orbit

LEO

Low Earth Orbit

Inclination

71.0

Latest

Satellite identification and parameters

Extended collection of information and parameters for SL-16 R/B.

Object identification

Identified? True

Debris? False

Object name: SL-16 R/B

International designator: 2007-029B

Object number (NORAD): 31793

Object ID (CCSDS): 31793

Country: COMMONWEALTH OF INDEPENDENT STATES (CIS)

Current information (Y/N): Y

RCS size: LARGE

Orbital parameters

Period: 101.783 minutes

Inclination: 70.974 deg

SMA: 7221.195 km

Apoapsis: 844.571 km

Periapsis: 841.548 km

RAAN: 97.1859 deg

Eccentricy: 0.0002093

Argument of periapsis: 269.6924 deg

Mean anomaly: 155.5087 deg

Mean motion: 14.14780841 rev/day

Mean motion (dot): -0.00000161 rev/day2

B* drag term: -0.000058806 1/REarth

Two-line elements (TLE)

Creation date: May 7, 2025, 3:14 a.m.

Reference frame: TEME

Reference center: EARTH

Epoch: May 6, 2025, 10:17 p.m. UTC

TLE line 0: 0 SL-16 R/B

TLE line 1: 1 31793U 07029B 25126.92899981 -.00000161 00000-0 -58806-4 0 9993

TLE line 2: 2 31793 70.9740 97.1859 0002093 269.6924 155.5087 14.14780841921981

Live tracking on map

Real-time ground track for satellite SL-16 R/B.

In-orbit conjunctions

A list of the most updated potential collisions computed for object SL-16 R/B.

Target Orbit TCA Probability of collision Miss distance Type
CZ-6A DEB LEO 2025-02-15 14:41:45 0.000335423 719.0 (m) DEBRIS
FENGYUN 1C DEB SSO 2024-11-10 10:14:10 0.0002256167 965.0 (m) DEBRIS
FENGYUN 1C DEB SSO 2024-10-13 12:12:34 0.0001431206 550.0 (m) DEBRIS

Associated space launch

Second generation ELING satellite

SL-16 R/B was lifted into orbit during the mission ‘Zenit 2M | Tselina-2 23’, on board a Zenit 2M space rocket.

The launch took place on June 29, 2007, 10 a.m. from 45/1.

For more information about the launch, click the button.

Launch to space Zenit 2M | Tselina-2 23
Zenit 2M | Tselina-2 23

Agency: N/A

Status: Launch Successful

Launch date: June 29, 2007, 10 a.m. UTC

Rocket: Zenit 2M

Launch pad: 45/1

Location: Baikonur Cosmodrome, Republic of Kazakhstan

...

Latest news about this satellite

There are no fresh news available about this satellite. Check back as we update our databases every day.


Newsletter sign-up

Weekly statistics, charts and insights to help you stay on top of the space industry.